Location: Unspecified
(0.0000°N, 0.0000°E)
Time: 09:51:46
(UTC+00:00)

UKube-1 - Visible Passes

Search period start: 26 September 2020 00:00
Search period end: 06 October 2020 00:00
Orbit: 612 x 619 km, 98.5° (Epoch: 26 September)

Date Brightness Start Highest point End Pass type
(mag) Time Alt. Az. Time Alt. Az. Time Alt. Az.
26 Sep ? 18:51:19 10° N 18:55:25 46° WNW 18:59:32 10° SSW visible
27 Sep ? 19:07:39 10° NNW 19:11:17 27° WNW 19:14:56 10° SW visible
28 Sep ? 19:24:23 10° NW 19:27:08 17° WNW 19:29:53 10° WSW visible
30 Sep ? 18:18:59 10° NNE 18:23:09 54° ESE 18:27:20 10° S visible
01 Oct ? 18:34:44 10° N 18:39:01 87° W 18:43:19 10° SSW visible
02 Oct ? 18:50:44 10° N 18:54:52 50° WNW 18:59:02 10° SSW visible
03 Oct ? 19:07:00 10° NNW 19:10:43 30° WNW 19:14:29 10° SW visible
04 Oct ? 19:23:40 10° NW 19:26:35 18° WNW 19:29:31 10° WSW visible
05 Oct ? 19:41:26 10° WNW 19:42:26 11° WNW 19:43:25 10° W visible
